Dewpoint
-21 -23 -23 -23 -22 -22 -23 -23 -23 -20 -16 -15 -15 -15 -14 -14 -9 -6 -6 -6 -6 -6 -5 -5 -5 -5 -4
-25 -22 -23 -22 -23 -23 -23 -22 -20 -16 -15 -15 -15 -14 -14 -14 -15 -11 -7 -7 -7 -7 -6 -6 -5 -5 -5
-25 -23 -22 -22 -23 -24 -25 -23 -18 -15 -15 -15 -14 -14 -14 -14 -15 -15 -15 -14 -9 -7 -7 -6 -6 -5 -5
-23 -23 -23 -22 -22 -21 -25 -20 -18 -15 -15 -15 -14 -14 -13 -13 -14 -14 -14 -12 -8 -7 -7 -6 -6 -7 -6
-23 -25 -23 -23 -22 -19 -16 -16 -16 -14 -15 -14 -15 -14 -14 -13 -13 -14 -13 -9 -7 -7 -7 -6 -7 -7 -6
-24 -23 -21 -19 -18 -16 -13 -13 -13 -14 -13 -15 -14 -14 -14 -13 -14 -14 -11 -8 -8 -7 -7 -7 -7 -7 -7
-22 -20 -19 -16 -14 -13 -13 -13 -13 -13 -12 -14 -14 -14 -14 -14 -14 -14 -13 -8 -9 -9 -8 -8 -7 -7 -7
-21 -19 -16 -14 -14 -13 -12 -12 -13 -13 -13 -13 -13 -14 -14 -14 -13 -13 -13 -9 -13 -13 -9 -8 -8 -8 -7
-16 -14 -14 -15 -14 -12 -12 -13 -12 -13 -13 -12 -13 -13 -13 -14 -13 -13 -13 -13 -13 -13 -10 -9 -8 -8 -8
-18 -18 -16 -15 -14 -13 -12 -12 -12 -12 -12 -11 -11 -12 -12 -12 -13 -14 -15 -17 -16 -14 -13 -11 -9 -9 -10
-18 -17 -16 -16 -15 -14 -13 -12 -12 -12 -12 -11 -11 -12 -12 -12 -13 -14 -15 -15 -16 -16 -14 -11 -9 -10 -12
-16 -17 -17 -16 -16 -15 -13 -13 -12 -12 -12 -12 -12 -12 -12 -12 -12 -14 -15 -15 -14 -15 -13 -13 -14 -14 -14
-16 -16 -15 -15 -16 -15 -13 -13 -13 -12 -12 -14 -12 -12 -12 -12 -12 -14 -14 -14 -14 -14 -13 -13 -14 -14 -14
-15 -15 -15 -15 -15 -13 -13 -13 -13 -13 -13 -13 -13 -13 -12 -12 -12 -14 -14 -13 -14 -14 -14 -14 -14 -14 -15
-15 -15 -15 -14 -14 -13 -13 -13 -13 -13 -13 -13 -13 -13 -13 -13 -13 -14 -14 -14 -14 -13 -14 -14 -14 -14 -14
-15 -16 -14 -13 -13 -13 -13 -12 -13 -13 -13 -13 -13 -13 -14 -14 -14 -13 -14 -14 -14 -13 -13 -13 -14 -14 -14
-16 -15 -14 -13 -13 -13 -13 -13 -13 -13 -13 -13 -13 -13 -12 -12 -13 -13 -13 -13 -13 -13 -13 -14 -13 -14 -14
Wind_Speed
10 12 14 15 15 16 18 20 23 24 22 23 24 24 25 24 22 20 21 22 21 21 21 22 22 23 23
9 11 14 16 17 18 19 21 23 22 22 22 23 23 26 25 25 23 22 21 20 18 21 21 21 21 21
12 13 15 17 18 19 20 20 22 22 21 22 22 25 25 23 21 22 24 25 22 20 19 19 19 19 20
13 15 17 19 22 25 22 22 24 24 22 24 26 25 23 22 21 24 25 23 21 20 18 19 20 22 21
15 17 18 21 23 25 26 26 25 25 24 28 28 27 25 21 24 25 25 21 17 17 16 17 21 22 18
16 17 18 20 22 23 25 29 31 26 31 32 29 26 24 23 23 24 20 10 16 17 18 20 22 23 21
15 16 18 19 22 25 26 28 29 30 29 35 27 25 25 22 20 19 6 10 22 20 21 20 22 24 23
16 17 18 20 22 25 26 29 29 28 25 30 27 30 27 22 15 10 11 19 27 24 21 23 24 23 21
16 16 18 20 21 24 25 28 32 32 26 22 31 34 33 20 5 7 22 25 23 22 23 23 21 18 23
18 20 22 21 21 22 24 25 26 30 21 28 30 29 25 18 28 27 29 26 26 22 20 21 17 21 26
21 22 22 23 23 22 22 23 25 27 26 23 27 27 24 33 35 34 33 34 27 21 19 17 18 24 31
23 23 22 23 25 24 22 22 22 26 27 21 24 24 25 30 36 37 35 33 27 18 18 25 26 24 24
23 23 23 24 25 23 21 25 23 22 21 19 21 22 23 27 32 36 35 35 15 26 25 27 25 24 26
23 24 23 24 25 22 24 28 28 22 19 19 18 19 23 26 27 31 30 28 30 27 29 28 25 23 24
23 23 23 26 26 23 23 28 27 28 26 21 18 18 21 24 27 27 28 30 29 32 30 32 29 26 24
25 24 24 26 25 25 25 24 26 26 26 23 22 24 24 22 21 26 28 30 32 32 29 32 34 28 27
25 23 23 24 26 27 25 25 26 26 25 23 24 25 26 30 31 23 28 32 32 33 29 28 33 32 28
Wind_Direction
254 284 300 308 310 313 314 314 313 315 318 317 315 315 314 317 314 310 306 307 306 305 304 304 302 298 301
302 302 307 310 315 317 317 316 315 318 323 319 318 319 315 315 311 309 305 304 305 307 309 308 305 299 295
310 311 316 317 317 316 315 313 314 323 327 320 322 323 319 315 315 308 305 304 306 306 308 301 312 310 307
318 321 321 323 321 319 317 321 321 328 330 323 330 324 318 314 310 308 304 305 304 304 302 305 306 303 302
323 321 320 320 322 322 322 322 324 330 330 326 331 327 323 319 314 307 302 309 309 305 292 298 304 309 302
324 319 321 321 318 318 323 325 326 335 327 323 330 326 322 319 312 303 307 324 318 314 311 302 301 305 301
317 319 320 319 319 321 320 320 320 326 322 319 329 322 321 328 316 304 297 312 326 313 313 308 305 304 302
319 319 322 321 316 313 317 315 314 316 324 312 320 320 326 335 318 289 296 310 315 308 308 308 305 302 303
319 318 317 316 314 313 316 316 317 319 325 311 321 322 327 338 355 321 310 310 310 305 305 307 305 301 289
315 316 316 317 317 315 315 313 312 315 317 315 321 327 326 325 316 323 326 324 321 314 305 300 296 299 297
317 317 315 316 318 319 315 310 305 300 310 311 306 309 307 310 314 323 329 327 323 316 304 290 281 294 299
315 315 317 319 321 320 317 315 304 300 304 301 295 301 303 303 307 318 324 328 328 324 319 308 304 301 298
318 321 321 322 322 319 317 325 317 307 306 303 293 296 293 297 305 313 321 324 324 325 317 314 314 313 311
323 320 319 323 326 323 319 327 323 321 315 316 306 293 293 295 304 310 319 314 321 324 320 317 316 315 313
324 322 324 323 324 321 318 321 320 323 322 320 316 304 293 294 299 311 316 319 325 329 325 318 316 318 315
324 324 321 320 320 322 322 318 316 321 322 326 325 322 315 303 311 319 321 323 328 328 325 317 314 319 318
320 316 315 318 320 321 322 318 318 319 321 325 328 327 319 314 319 320 316 320 321 322 323 319 315 318 319
Height
1520 1518 1517 1515 1514 1512 1511 1508 1504 1500 1497 1493 1488 1486 1482 1479 1477 1475 1472 1469 1466 1464 1462 1459 1457 1454 1452
1515 1515 1513 1512 1510 1508 1506 1503 1501 1496 1492 1487 1483 1481 1477 1474 1471 1468 1466 1462 1459 1458 1456 1454 1451 1449 1447
1514 1513 1511 1509 1506 1505 1502 1500 1497 1492 1487 1483 1479 1476 1472 1469 1466 1462 1459 1455 1453 1452 1451 1449 1446 1444 1442
1512 1509 1508 1505 1502 1498 1497 1494 1490 1486 1483 1478 1475 1472 1468 1464 1462 1458 1453 1451 1449 1447 1446 1444 1441 1439 1437
1509 1507 1503 1500 1498 1496 1492 1490 1484 1480 1477 1473 1469 1467 1463 1460 1457 1452 1448 1446 1445 1443 1440 1438 1436 1433 1431
1505 1505 1500 1498 1496 1493 1488 1485 1478 1476 1471 1468 1466 1462 1459 1456 1451 1446 1443 1443 1441 1438 1435 1433 1431 1428 1425
1503 1500 1498 1494 1493 1489 1485 1479 1475 1471 1467 1461 1461 1458 1455 1450 1445 1441 1440 1439 1436 1432 1429 1428 1425 1421 1419
1500 1498 1494 1492 1489 1486 1480 1475 1471 1469 1466 1458 1457 1452 1449 1446 1440 1438 1438 1436 1431 1427 1424 1421 1418 1415 1413
1497 1495 1492 1489 1485 1481 1476 1470 1464 1462 1461 1456 1452 1444 1441 1440 1438 1437 1436 1431 1426 1421 1417 1414 1411 1409 1405
1494 1491 1488 1484 1480 1477 1471 1467 1463 1458 1458 1454 1448 1445 1435 1432 1433 1430 1427 1423 1419 1415 1411 1408 1406 1402 1398
1490 1487 1484 1480 1476 1472 1469 1465 1461 1457 1455 1452 1445 1443 1440 1431 1424 1423 1420 1414 1411 1408 1405 1402 1400 1398 1392
1486 1483 1478 1474 1470 1467 1464 1462 1458 1453 1450 1448 1442 1439 1435 1429 1422 1417 1414 1410 1406 1402 1400 1397 1394 1391 1388
1481 1476 1471 1468 1465 1462 1459 1456 1452 1449 1445 1442 1438 1434 1431 1425 1419 1413 1408 1402 1401 1399 1394 1391 1387 1383 1378
1474 1470 1466 1462 1460 1457 1454 1450 1445 1443 1441 1436 1433 1429 1425 1422 1417 1410 1407 1401 1397 1393 1388 1383 1380 1378 1374
1470 1465 1461 1458 1455 1453 1449 1445 1440 1435 1433 1431 1428 1425 1420 1416 1411 1408 1401 1396 1392 1387 1381 1375 1373 1371 1368
1465 1461 1457 1455 1451 1448 1445 1441 1436 1432 1428 1425 1421 1417 1412 1410 1409 1401 1396 1391 1386 1381 1378 1371 1364 1364 1361
1461 1458 1454 1450 1447 1443 1440 1436 1431 1428 1424 1421 1417 1413 1407 1402 1399 1399 1393 1387 1382 1376 1373 1368 1360 1356 1354